| time (UTC) | temp F | wind direction | speed MPH | gust MPH | rain 1hr in | rain 24hr in | rain mn in | humidity % | barometer mb |
| 20260503025212 | 66 | 343 | 9.0 | 15.0 | 0.00 | 0.25 | 0.25 | 90 | 1013.8 |
| 20260503024737 | 66 | 340 | 9.0 | 15.0 | 0.00 | 0.25 | 0.25 | 90 | 1013.7 |
| 20260503024221 | 66 | 324 | 9.0 | 15.0 | 0.00 | 0.25 | 0.25 | 90 | 1013.5 |
| 20260503023730 | 66 | 349 | 10.0 | 17.0 | 0.00 | 0.25 | 0.25 | 90 | 1013.4 |
| 20260503023214 | 67 | 330 | 12.0 | 18.0 | 0.00 | 0.25 | 0.25 | 90 | 1013.0 |
| 20260503022716 | 67 | 339 | 12.0 | 18.0 | 0.00 | 0.25 | 0.25 | 90 | 1012.8 |
| 20260503022240 | 67 | 332 | 12.0 | 17.0 | 0.00 | 0.25 | 0.25 | 90 | 1012.9 |
| 20260503021723 | 67 | 331 | 13.0 | 17.0 | 0.00 | 0.25 | 0.25 | 89 | 1012.7 |
| 20260503021248 | 67 | 18 | 11.0 | 19.0 | 0.00 | 0.25 | 0.25 | 91 | 1012.9 |
| 20260503020722 | 67 | 356 | 13.0 | 20.0 | 0.00 | 0.25 | 0.25 | 90 | 1012.8 |
| 20260503020227 | 67 | 357 | 11.0 | 20.0 | 0.00 | 0.25 | 0.25 | 90 | 1012.9 |
| 20260503015712 | 68 | 338 | 13.0 | 20.0 | 0.00 | 0.25 | 0.25 | 91 | 1012.6 |
| 20260503015218 | 67 | 355 | 14.0 | 20.0 | 0.00 | 0.25 | 0.25 | 90 | 1012.7 |
| 20260503014723 | 67 | 339 | 15.0 | 21.0 | 0.00 | 0.25 | 0.25 | 91 | 1012.6 |
| 20260503014227 | 68 | 324 | 16.0 | 21.0 | 0.00 | 0.25 | 0.25 | 91 | 1012.5 |
| 20260503013716 | 68 | 326 | 14.0 | 22.0 | 0.00 | 0.25 | 0.25 | 91 | 1012.3 |
| 20260503013221 | 69 | 353 | 15.0 | 22.0 | 0.00 | 0.25 | 0.25 | 91 | 1012.1 |
| 20260503012726 | 69 | 331 | 17.0 | 21.0 | 0.00 | 0.25 | 0.25 | 90 | 1011.9 |
| 20260503012231 | 70 | 2 | 17.0 | 21.0 | 0.01 | 0.25 | 0.25 | 90 | 1011.7 |
| 20260503011716 | 71 | 350 | 14.0 | 21.0 | 0.02 | 0.25 | 0.25 | 90 | 1011.4 |
| 20260503011221 | 71 | 329 | 15.0 | 18.0 | 0.02 | 0.25 | 0.25 | 90 | 1011.7 |
| 20260503010746 | 71 | 326 | 12.0 | 17.0 | 0.02 | 0.25 | 0.25 | 89 | 1011.7 |
| 20260503010250 | 71 | 347 | 10.0 | 13.0 | 0.02 | 0.25 | 0.25 | 90 | 1011.5 |
| 20260503005734 | 71 | 327 | 9.0 | 15.0 | 0.02 | 0.25 | 0.25 | 91 | 1011.5 |
| 20260503005218 | 71 | 322 | 9.0 | 15.0 | 0.02 | 0.25 | 0.25 | 93 | 1011.7 |
| 20260503004723 | 71 | 17 | 7.0 | 12.0 | 0.02 | 0.25 | 0.25 | 93 | 1011.4 |
| 20260503004248 | 71 | 18 | 9.0 | 13.0 | 0.02 | 0.25 | 0.25 | 93 | 1011.2 |
| 20260503003730 | 71 | 40 | 8.0 | 13.0 | 0.02 | 0.25 | 0.25 | 93 | 1011.1 |
| 20260503003215 | 71 | 18 | 10.0 | 13.0 | 0.02 | 0.25 | 0.25 | 93 | 1011.0 |
| 20260503002724 | 70 | 312 | 7.0 | 17.0 | 0.02 | 0.25 | 0.25 | 92 | 1011.0 |
| 20260503002249 | 70 | 307 | 5.0 | 17.0 | 0.01 | 0.24 | 0.24 | 92 | 1010.8 |
| 20260503001713 | 72 | 295 | 6.0 | 9.0 | 0.00 | 0.23 | 0.23 | 94 | 1010.8 |
| 20260503001218 | 72 | 250 | 1.0 | 3.0 | 0.00 | 0.23 | 0.23 | 93 | 1010.5 |
| 20260503000747 | 72 | 211 | 1.0 | 3.0 | 0.00 | 0.23 | 0.23 | 93 | 1010.3 |
| 20260503000221 | 72 | 191 | 0.0 | 2.0 | 0.00 | 0.23 | 0.23 | 93 | 1010.5 |
| 20260502235726 | 72 | 186 | 0.0 | 2.0 | 0.00 | 0.23 | 0.23 | 93 | 1010.5 |
| 20260502235231 | 72 | 279 | 0.0 | 2.0 | 0.00 | 0.23 | 0.23 | 93 | 1010.1 |
| 20260502234715 | 72 | 265 | 0.0 | 6.0 | 0.00 | 0.23 | 0.23 | 93 | 1009.9 |
| 20260502234235 | 72 | 226 | 2.0 | 6.0 | 0.00 | 0.23 | 0.23 | 93 | 1010.1 |
| 20260502233718 | 72 | 275 | 4.0 | 7.0 | 0.00 | 0.23 | 0.23 | 93 | 1010.2 |
| 20260502233219 | 72 | 187 | 3.0 | 7.0 | 0.00 | 0.23 | 0.23 | 93 | 1009.9 |
| 20260502232723 | 72 | 281 | 2.0 | 5.0 | 0.00 | 0.23 | 0.23 | 93 | 1009.9 |
| 20260502232228 | 72 | 246 | 1.0 | 3.0 | 0.00 | 0.23 | 0.23 | 93 | 1009.8 |
| 20260502231731 | 72 | 264 | 0.0 | 2.0 | 0.00 | 0.23 | 0.23 | 93 | 1010.0 |
| 20260502231216 | 72 | 252 | 0.0 | 2.0 | 0.00 | 0.23 | 0.23 | 93 | 1009.9 |
| 20260502230725 | 72 | 196 | 0.0 | 5.0 | 0.00 | 0.23 | 0.23 | 93 | 1009.8 |
| 20260502230232 | 72 | 274 | 1.0 | 5.0 | 0.00 | 0.23 | 0.23 | 93 | 1009.8 |
| 20260502225729 | 72 | 238 | 0.0 | 3.0 | 0.00 | 0.23 | 0.23 | 93 | 1009.5 |
| 20260502225213 | 72 | 243 | 1.0 | 6.0 | 0.00 | 0.23 | 0.23 | 93 | 1009.5 |
| 20260502224738 | 71 | 284 | 3.0 | 7.0 | 0.00 | 0.23 | 0.23 | 93 | 1009.4 |
| 20260502224220 | 72 | 263 | 5.0 | 9.0 | 0.00 | 0.23 | 0.23 | 93 | 1009.2 |
| 20260502223724 | 71 | 276 | 3.0 | 9.0 | 0.00 | 0.23 | 0.23 | 93 | 1009.2 |
| 20260502223226 | 72 | 277 | 3.0 | 7.0 | 0.00 | 0.23 | 0.23 | 93 | 1009.2 |
| 20260502222722 | 71 | 246 | 3.0 | 8.0 | 0.00 | 0.23 | 0.23 | 93 | 1009.1 |
| 20260502222216 | 71 | 257 | 4.0 | 10.0 | 0.00 | 0.23 | 0.23 | 93 | 1009.1 |
| 20260502221741 | 71 | 270 | 7.0 | 12.0 | 0.00 | 0.23 | 0.23 | 93 | 1009.2 |
| 20260502221216 | 71 | 277 | 6.0 | 10.0 | 0.00 | 0.23 | 0.23 | 93 | 1009.3 |
| 20260502220725 | 71 | 279 | 6.0 | 11.0 | 0.00 | 0.23 | 0.23 | 93 | 1009.2 |
| 20260502220229 | 71 | 252 | 6.0 | 11.0 | 0.00 | 0.23 | 0.23 | 93 | 1009.1 |
| 20260502215733 | 71 | 258 | 7.0 | 11.0 | 0.00 | 0.23 | 0.23 | 93 | 1008.9 |
| 20260502215217 | 71 | 272 | 4.0 | 13.0 | 0.00 | 0.23 | 0.23 | 93 | 1008.7 |
| 20260502214721 | 71 | 288 | 4.0 | 9.0 | 0.00 | 0.23 | 0.23 | 93 | 1008.6 |
| 20260502214226 | 71 | 259 | 5.0 | 9.0 | 0.00 | 0.23 | 0.23 | 93 | 1008.6 |
| 20260502213715 | 71 | 267 | 3.0 | 6.0 | 0.00 | 0.23 | 0.23 | 93 | 1008.7 |
| 20260502213213 | 71 | 330 | 1.0 | 6.0 | 0.00 | 0.23 | 0.23 | 93 | 1008.5 |
| 20260502212718 | 71 | 185 | 1.0 | 4.0 | 0.00 | 0.23 | 0.23 | 93 | 1008.5 |
| 20260502212222 | 71 | 310 | 0.0 | 5.0 | 0.00 | 0.23 | 0.23 | 93 | 1008.3 |
| 20260502211741 | 71 | 294 | 1.0 | 8.0 | 0.00 | 0.23 | 0.23 | 93 | 1008.2 |
| 20260502211217 | 71 | 108 | 1.0 | 8.0 | 0.00 | 0.23 | 0.23 | 93 | 1008.0 |
| 20260502210722 | 71 | 272 | 2.0 | 5.0 | 0.00 | 0.23 | 0.23 | 93 | 1008.1 |
| 20260502210303 | 71 | 288 | 1.0 | 5.0 | 0.00 | 0.23 | 0.23 | 93 | 1008.1 |
| 20260502205713 | 71 | 279 | 1.0 | 10.0 | 0.00 | 0.23 | 0.23 | 93 | 1008.1 |
| 20260502205218 | 71 | 274 | 5.0 | 12.0 | 0.00 | 0.23 | 0.23 | 93 | 1008.3 |
| 20260502204722 | 71 | 276 | 1.0 | 12.0 | 0.01 | 0.23 | 0.23 | 93 | 1008.6 |
| 20260502204247 | 70 | 288 | 5.0 | 13.0 | 0.01 | 0.23 | 0.23 | 93 | 1008.8 |
| 20260502203726 | 70 | 257 | 7.0 | 13.0 | 0.02 | 0.23 | 0.23 | 93 | 1008.8 |
| 20260502203231 | 70 | 293 | 4.0 | 10.0 | 0.03 | 0.23 | 0.23 | 93 | 1008.9 |
| 20260502202713 | 70 | 262 | 3.0 | 12.0 | 0.04 | 0.23 | 0.23 | 93 | 1008.9 |
| 20260502202218 | 70 | 273 | 5.0 | 12.0 | 0.04 | 0.23 | 0.23 | 93 | 1009.0 |
| 20260502201719 | 70 | 255 | 3.0 | 10.0 | 0.04 | 0.23 | 0.23 | 93 | 1008.8 |
| 20260502200715 | 70 | 272 | 8.0 | 11.0 | 0.04 | 0.23 | 0.23 | 93 | 1009.0 |
| 20260502200218 | 70 | 246 | 2.0 | 10.0 | 0.04 | 0.23 | 0.23 | 93 | 1008.8 |
| 20260502195720 | 70 | 219 | 5.0 | 10.0 | 0.04 | 0.23 | 0.23 | 93 | 1009.7 |
| 20260502195215 | 70 | 273 | 2.0 | 10.0 | 0.04 | 0.23 | 0.23 | 93 | 1009.6 |
| 20260502194737 | 69 | 208 | 4.0 | 10.0 | 0.03 | 0.22 | 0.22 | 92 | 1009.8 |
| 20260502194240 | 70 | 107 | 2.0 | 10.0 | 0.03 | 0.21 | 0.21 | 92 | 1009.8 |
| 20260502193731 | 70 | 286 | 2.0 | 8.0 | 0.05 | 0.21 | 0.21 | 93 | 1010.2 |
| 20260502193216 | 70 | 302 | 2.0 | 10.0 | 0.05 | 0.20 | 0.20 | 93 | 1010.0 |
| 20260502192720 | 70 | 275 | 4.0 | 9.0 | 0.06 | 0.19 | 0.19 | 93 | 1010.3 |
| 20260502192244 | 69 | 308 | 1.0 | 10.0 | 0.06 | 0.19 | 0.19 | 92 | 1009.9 |
| 20260502191747 | 69 | 194 | 2.0 | 9.0 | 0.06 | 0.19 | 0.19 | 92 | 1010.0 |
| 20260502191228 | 69 | 276 | 3.0 | 16.0 | 0.07 | 0.19 | 0.19 | 92 | 1010.3 |
| 20260502190725 | 69 | 271 | 5.0 | 16.0 | 0.08 | 0.19 | 0.19 | 92 | 1010.5 |
| 20260502190219 | 69 | 274 | 3.0 | 11.0 | 0.08 | 0.19 | 0.19 | 92 | 1010.6 |
| 20260502185720 | 69 | 139 | 3.0 | 15.0 | 0.08 | 0.19 | 0.19 | 92 | 1010.5 |
| 20260502185215 | 69 | 279 | 11.0 | 15.0 | 0.08 | 0.19 | 0.19 | 92 | 1010.5 |
| 20260502184730 | 69 | 274 | 7.0 | 13.0 | 0.11 | 0.19 | 0.19 | 92 | 1010.1 |
| 20260502184215 | 69 | 279 | 8.0 | 10.0 | 0.10 | 0.18 | 0.18 | 92 | 1010.3 |
| 20260502183715 | 69 | 63 | 0.0 | 9.0 | 0.16 | 0.16 | 0.16 | 91 | 1010.3 |
| 20260502183222 | 69 | 257 | 3.0 | 10.0 | 0.14 | 0.14 | 0.14 | 91 | 1010.1 |
| 20260502182725 | 69 | 279 | 6.0 | 12.0 | 0.13 | 0.13 | 0.13 | 91 | 1010.2 |
| 20260502181726 | 69 | 288 | 6.0 | 17.0 | 0.13 | 0.13 | 0.13 | 89 | 1010.7 |
| 20260502181231 | 69 | 228 | 6.0 | 23.0 | 0.12 | 0.12 | 0.12 | 89 | 1010.7 |
| 20260502180719 | 70 | 267 | 15.0 | 26.0 | 0.11 | 0.11 | 0.11 | 87 | 1010.8 |
| 20260502180225 | 71 | 234 | 18.0 | 26.0 | 0.11 | 0.11 | 0.11 | 85 | 1010.9 |
| 20260502170227 | 82 | 272 | 8.0 | 13.0 | 0.00 | 0.00 | 0.00 | 73 | 1010.0 |
| 20260502164217 | 82 | 250 | 2.0 | 8.0 | 0.00 | 0.00 | 0.00 | 73 | 1010.0 |
| 20260502163715 | 82 | 281 | 3.0 | 8.0 | 0.00 | 0.00 | 0.00 | 73 | 1010.0 |
| 20260502163220 | 82 | 277 | 4.0 | 8.0 | 0.00 | 0.00 | 0.00 | 73 | 1009.9 |
| 20260502162724 | 82 | 272 | 2.0 | 6.0 | 0.00 | 0.00 | 0.00 | 73 | 1010.0 |
| 20260502162230 | 82 | 269 | 3.0 | 6.0 | 0.00 | 0.00 | 0.00 | 73 | 1009.9 |
| 20260502161725 | 82 | 314 | 2.0 | 14.0 | 0.00 | 0.00 | 0.00 | 72 | 1009.7 |
| 20260502161228 | 81 | 156 | 4.0 | 14.0 | 0.00 | 0.00 | 0.00 | 72 | 1009.8 |
| 20260502160747 | 81 | 246 | 4.0 | 9.0 | 0.00 | 0.00 | 0.00 | 73 | 1009.8 |
| 20260502160213 | 81 | 133 | 4.0 | 7.0 | 0.00 | 0.00 | 0.00 | 73 | 1009.9 |
| 20260502152222 | 79 | 52 | 2.0 | 7.0 | 0.00 | 0.00 | 0.00 | 78 | 1010.1 |
| 20260502151744 | 79 | 298 | 3.0 | 7.0 | 0.00 | 0.00 | 0.00 | 77 | 1010.2 |
| 20260502151226 | 79 | 312 | 3.0 | 7.0 | 0.00 | 0.00 | 0.00 | 79 | 1010.3 |
| 20260502150731 | 78 | 210 | 2.0 | 8.0 | 0.00 | 0.00 | 0.00 | 78 | 1010.2 |
| 20260502150214 | 78 | 168 | 3.0 | 9.0 | 0.00 | 0.00 | 0.00 | 80 | 1010.3 |
| 20260502130725 | 74 | 319 | 1.0 | 4.0 | 0.00 | 0.00 | 0.00 | 92 | 1010.3 |
| 20260502130218 | 74 | 126 | 1.0 | 5.0 | 0.00 | 0.00 | 0.00 | 92 | 1010.2 |
| 20260502123222 | 72 | 209 | 1.0 | 4.0 | 0.00 | 0.00 | 0.00 | 94 | 1009.9 |
| 20260502122746 | 72 | 200 | 1.0 | 3.0 | 0.00 | 0.00 | 0.00 | 94 | 1009.8 |
| 20260502122230 | 72 | 189 | 1.0 | 3.0 | 0.00 | 0.00 | 0.00 | 94 | 1009.8 |
| 20260502121714 | 72 | 149 | 1.0 | 3.0 | 0.00 | 0.00 | 0.00 | 94 | 1009.7 |
| 20260502121220 | 72 | 111 | 0.0 | 3.0 | 0.00 | 0.00 | 0.00 | 94 | 1009.6 |
| 20260502120749 | 72 | 131 | 1.0 | 3.0 | 0.00 | 0.00 | 0.00 | 94 | 1009.6 |
| 20260502120217 | 71 | 163 | 1.0 | 3.0 | 0.00 | 0.00 | 0.00 | 95 | 1009.6 |
| 20260502115722 | 71 | 155 | 0.0 | 3.0 | 0.00 | 0.00 | 0.00 | 94 | 1009.5 |
| 20260502115225 | 71 | 154 | 0.0 | 1.0 | 0.00 | 0.00 | 0.00 | 95 | 1009.5 |
| 20260502114730 | 71 | 159 | 0.0 | 1.0 | 0.00 | 0.00 | 0.00 | 95 | 1009.6 |
| 20260502114214 | 71 | 172 | 0.0 | 0.0 | 0.00 | 0.00 | 0.00 | 95 | 1009.7 |
| 20260502113720 | 70 | 171 | 0.0 | 0.0 | 0.00 | 0.00 | 0.00 | 95 | 1009.6 |
| 20260502113226 | 70 | 219 | 0.0 | 0.0 | 0.00 | 0.00 | 0.00 | 95 | 1009.8 |
| 20260502112751 | 70 | 221 | 0.0 | 0.0 | 0.00 | 0.00 | 0.00 | 95 | 1009.8 |
| 20260502112215 | 70 | 203 | 0.0 | 0.0 | 0.00 | 0.00 | 0.00 | 95 | 1009.6 |
| 20260502111720 | 70 | 203 | 0.0 | 0.0 | 0.00 | 0.00 | 0.00 | 95 | 1009.7 |
| 20260502111224 | 70 | 202 | 0.0 | 0.0 | 0.00 | 0.00 | 0.00 | 95 | 1009.6 |
| 20260502110729 | 69 | 202 | 0.0 | 0.0 | 0.00 | 0.00 | 0.00 | 95 | 1009.6 |
| 20260502110217 | 69 | 202 | 0.0 | 0.0 | 0.00 | 0.00 | 0.00 | 95 | 1009.5 |
| 20260502105722 | 69 | 202 | 0.0 | 0.0 | 0.00 | 0.00 | 0.00 | 94 | 1009.4 |
| 20260502105227 | 69 | 202 | 0.0 | 0.0 | 0.00 | 0.00 | 0.00 | 94 | 1009.2 |
| 20260502104731 | 69 | 202 | 0.0 | 0.0 | 0.00 | 0.00 | 0.00 | 94 | 1009.2 |
| 20260502104215 | 69 | 203 | 0.0 | 0.0 | 0.00 | 0.00 | 0.00 | 94 | 1009.2 |
| 20260502103740 | 69 | 203 | 0.0 | 0.0 | 0.00 | 0.00 | 0.00 | 94 | 1009.0 |
| 20260502103245 | 70 | 203 | 0.0 | 0.0 | 0.00 | 0.00 | 0.00 | 94 | 1008.8 |
| 20260502102729 | 70 | 203 | 0.0 | 0.0 | 0.00 | 0.00 | 0.00 | 94 | 1008.6 |
| 20260502102213 | 70 | 203 | 0.0 | 0.0 | 0.00 | 0.00 | 0.00 | 94 | 1008.5 |
| 20260502101223 | 70 | 202 | 0.0 | 0.0 | 0.00 | 0.00 | 0.00 | 94 | 1008.8 |
| 20260502100735 | 70 | 203 | 0.0 | 1.0 | 0.00 | 0.00 | 0.00 | 94 | 1008.7 |
| 20260502100219 | 70 | 202 | 0.0 | 1.0 | 0.00 | 0.00 | 0.00 | 94 | 1008.8 |
| 20260502091213 | 71 | 159 | 0.0 | 0.0 | 0.00 | 0.00 | 0.00 | 92 | 1009.2 |
| 20260502090737 | 71 | 158 | 0.0 | 2.0 | 0.00 | 0.00 | 0.00 | 91 | 1009.4 |
| 20260502090240 | 72 | 158 | 1.0 | 3.0 | 0.00 | 0.00 | 0.00 | 91 | 1009.5 |
| 20260502071232 | 72 | 344 | 4.0 | 6.0 | 0.00 | 0.00 | 0.00 | 92 | 1010.3 |
| 20260502070721 | 72 | 356 | 3.0 | 5.0 | 0.00 | 0.00 | 0.00 | 92 | 1010.2 |
| 20260502070224 | 72 | 357 | 4.0 | 5.0 | 0.00 | 0.00 | 0.00 | 92 | 1010.1 |
| 20260502065727 | 73 | 14 | 3.0 | 5.0 | 0.00 | 0.00 | 0.00 | 92 | 1010.2 |
| 20260502065252 | 73 | 21 | 2.0 | 3.0 | 0.00 | 0.00 | 0.00 | 92 | 1010.2 |
| 20260502064715 | 73 | 37 | 2.0 | 5.0 | 0.00 | 0.00 | 0.00 | 92 | 1010.1 |
| 20260502064221 | 73 | 16 | 3.0 | 5.0 | 0.00 | 0.00 | 0.00 | 92 | 1010.2 |
| 20260502063723 | 72 | 47 | 4.0 | 5.0 | 0.00 | 0.00 | 0.00 | 92 | 1010.2 |
| 20260502063249 | 73 | 40 | 2.0 | 4.0 | 0.00 | 0.00 | 0.00 | 92 | 1010.3 |
| 20260502062752 | 72 | 22 | 2.0 | 3.0 | 0.00 | 0.00 | 0.00 | 92 | 1010.5 |
| 20260502062234 | 73 | 347 | 1.0 | 3.0 | 0.00 | 0.00 | 0.00 | 92 | 1010.6 |
| 20260502061738 | 73 | 17 | 2.0 | 3.0 | 0.00 | 0.00 | 0.00 | 92 | 1010.7 |
| 20260502061221 | 73 | 321 | 3.0 | 3.0 | 0.00 | 0.00 | 0.00 | 92 | 1010.8 |
| 20260502060716 | 73 | 35 | 0.0 | 4.0 | 0.00 | 0.00 | 0.00 | 92 | 1010.8 |
| 20260502060221 | 73 | 34 | 3.0 | 6.0 | 0.00 | 0.00 | 0.00 | 92 | 1010.6 |
| 20260502055725 | 73 | 30 | 4.0 | 8.0 | 0.00 | 0.00 | 0.00 | 92 | 1010.7 |
| 20260502055213 | 73 | 35 | 5.0 | 8.0 | 0.00 | 0.00 | 0.00 | 92 | 1010.8 |
| 20260502054718 | 73 | 4 | 6.0 | 8.0 | 0.00 | 0.00 | 0.00 | 91 | 1010.8 |
| 20260502054223 | 73 | 29 | 6.0 | 8.0 | 0.00 | 0.00 | 0.00 | 91 | 1010.8 |
| 20260502053748 | 73 | 25 | 7.0 | 9.0 | 0.00 | 0.00 | 0.00 | 92 | 1010.8 |
| 20260502053231 | 73 | 5 | 7.0 | 9.0 | 0.00 | 0.00 | 0.00 | 90 | 1010.9 |
| 20260502052716 | 73 | 23 | 8.0 | 9.0 | 0.00 | 0.00 | 0.00 | 90 | 1010.9 |
| 20260502052220 | 73 | 30 | 7.0 | 9.0 | 0.00 | 0.00 | 0.00 | 90 | 1010.9 |
| 20260502051725 | 73 | 30 | 7.0 | 9.0 | 0.00 | 0.00 | 0.00 | 90 | 1011.0 |
| 20260502051229 | 74 | 25 | 6.0 | 8.0 | 0.00 | 0.00 | 0.00 | 89 | 1011.0 |
| 20260502050714 | 74 | 11 | 7.0 | 8.0 | 0.00 | 0.00 | 0.00 | 88 | 1011.0 |
| 20260502050219 | 74 | 360 | 5.0 | 7.0 | 0.00 | 0.00 | 0.00 | 88 | 1011.1 |
| 20260502045724 | 74 | 26 | 6.0 | 8.0 | 0.00 | 0.00 | 0.00 | 87 | 1011.0 |
| 20260502045232 | 74 | 15 | 5.0 | 8.0 | 0.00 | 0.00 | 0.00 | 87 | 1011.2 |
| 20260502044716 | 75 | 14 | 7.0 | 8.0 | 0.00 | 0.00 | 0.00 | 86 | 1011.2 |
| 20260502044220 | 75 | 44 | 4.0 | 9.0 | 0.00 | 0.00 | 0.00 | 86 | 1011.1 |
| 20260502043724 | 74 | 1 | 6.0 | 9.0 | 0.00 | 0.00 | 0.00 | 87 | 1011.1 |
| 20260502043227 | 74 | 208 | 0.0 | 0.0 | 0.00 | 0.00 | 0.00 | 86 | 1011.2 |
| 20260502042731 | 73 | 208 | 0.0 | 1.0 | 0.00 | 0.00 | 0.00 | 86 | 1011.2 |
| 20260502042215 | 73 | 208 | 0.0 | 1.0 | 0.00 | 0.00 | 0.00 | 86 | 1011.1 |
| 20260502041718 | 73 | 208 | 0.0 | 1.0 | 0.00 | 0.00 | 0.00 | 86 | 1011.0 |
| 20260502041223 | 73 | 207 | 0.0 | 1.0 | 0.00 | 0.00 | 0.00 | 86 | 1010.8 |
| 20260502040719 | 73 | 208 | 0.0 | 2.0 | 0.00 | 0.00 | 0.00 | 86 | 1010.8 |